Weather in Ushman

Russia / Khabarovsk Krai     50°24′41″N   132°16′28″E
temp.,
°C
wind,
m/s
gust,
m/s
humid.,
%
clouds,
%
prec.,
mm/h
press.,
hPa
HPBL,
m
8 march, mon
mon801:00−20nw11999 0.0 102620
04:00−21nw1110013 0.0 102620
07:00−22w11990 0.0 102720
10:00−15wsw11870 0.0 1026162
13:00−10sw237818 0.0 1023564
16:00−9ssw248352 0.0 1020565
19:00−11s349690 0.0 101897
22:00−10sse4119395 0.1 1017422
9 march, tue
tue901:00−10s41393100 0.2 1012475
04:00−10s41293100 0.6 1008446
07:00−10s41194100 1.3 1005507
10:00−9ssw3792100 2.0 1005451
13:00−6wnw4788100 0.3 1005871
16:00−8nw8128191 0.5 1007964
19:00−12nw6148598 0.1 1011722
22:00−14nw3139473 0.1 1016441
10 march, wed
wed1001:00−15wnw229616 0.0 102028
04:00−15w12958 0.0 102322
07:00−16w12930 0.0 102520
10:00−11sw128422 0.0 1024154
13:00−7sw257267 0.0 1022601
16:00−7s368583 0.0 1018561
19:00−7sw41095100 0.4 1017972
22:00−7sw31194100 1.4 1018777
11 march, thu
thu1101:00−10nw31297100 0.2 1019563
04:00−13wnw129477 0.2 102223
07:00−15wnw22930 0.0 102524
10:00−10wnw23860 0.0 1026229
13:00−6wnw25680 0.0 1026671
16:00−5wnw46720 0.0 1025991
19:00−10nw22889 0.0 102622
22:00−13wsw11924 0.0 102821
12 march, fri
fri1201:00−14w11840 0.0 102921
04:00−15w11790 0.0 102920
07:00−15wsw01810 0.0 103020
10:00−9ssw12830 0.0 1029167
13:00−4wsw248775 0.0 1028545
16:00−4sw368887 0.1 1025607
19:00−5sw259397 0.0 1024255
22:00−9ssw239776 0.1 102534